Regional Weather Roundup
Issued by NWS Newport/Morehead, NC

Current Version | Previous Version | Graphics & Text | Print | Product List | Glossary Off
Versions: 1 2 3 4 5 6 7 8 9 10 11 12 13 14 15 16 17 18 19 20 21 22 23 24 25 26 27 28 29 30 31 32 33 34 35 36 37 38 39 40 41 42 43 44 45 46 47 48 49 50

000
ASUS42 KMHX 190010
RWRMHX
WEATHER ROUNDUP FOR EASTERN NORTH CAROLINA
NATIONAL WEATHER SERVICE NEWPORT/MOREHEAD CITY NC
700 PM EST THU DEC 18 2014

NOTE: "FAIR" INDICATES FEW OR NO CLOUDS BELOW 12,000 FEET
WITH NO SIGNIFICANT WEATHER AND/OR OBSTRUCTIONS TO VISIBILITY

NCZ015>017-031-032-045>047-102-103-190100-
NORTH COAST

CITY           SKY/WX    TMP DP  RH WIND       PRES   REMARKS
EDENTON        MOCLDY    40  34  78 CALM      30.11R
ELIZABETH CITY PTCLDY    45  32  60 CALM      30.11R
KITTY HAWK     CLOUDY    41  32  71 CALM      30.09S
MANTEO         CLOUDY    43  33  69 CALM      30.11S

$$

NCZ045>047-081-094-103-104-190100-
CENTRAL COAST

CITY           SKY/WX    TMP DP  RH WIND       PRES   REMARKS
FRISCO         PTCLDY    36  33  89 CALM      30.10S
SWANQUARTER      N/A     39 N/A N/A CALM      30.09R

$$

NCZ095-097-098-100-101-190100-
SOUTHERN COAST

CITY           SKY/WX    TMP DP  RH WIND       PRES   REMARKS
BEAUFORT       CLEAR     40  33  76 CALM      30.12R
CEDAR ISLAND     N/A     41 N/A N/A SE1       30.15R
JACKSONVILLE   CLEAR     42  37  82 CALM      30.11R
PINEY ISLAND   CLEAR     44  34  67 S5        30.12R
WILMINGTON     CLEAR     43  36  76 CALM      30.10R


$$

NCZ011>013-027>030-043-044-078>080-089-090>093-098-190100-
COASTAL PLAIN

CITY           SKY/WX    TMP DP  RH WIND       PRES   REMARKS
AHOSKIE        PTCLDY    36  31  84 CALM      30.12R
CLINTON        CLEAR     40  35  83 CALM      30.11S
ELIZABETHTOWN  CLEAR     44  32  63 CALM      30.10S
GOLDSBORO      PTCLDY    41  38  89 CALM      30.09S
GREENVILLE     MOCLDY    41  34  75 CALM      30.13S
HAVELOCK       CLEAR     40  34  79 CALM      30.12R
KENANSVILLE    PTCLDY    37  33  87 CALM      30.12S
KINSTON        PTCLDY    39  34  81 CALM      30.12R
NEW BERN       CLEAR     42  32  67 CALM      30.13R
RICHLANDS      CLEAR     37  32  81 CALM      30.12R
ROCKY MOUNT    PTCLDY    40  33  76 CALM      30.11R
WASHINGTON     MOCLDY    41  32  72 CALM      30.11S
WHITEVILLE     CLEAR     44  34  67 CALM      30.09S

$$

AMZ130-135-150-152-154-156-158-170-250-252-270-ANZ085-086-088-633-658-670-190100-
MARINE OBSERVATIONS

STATION/POSITION TIME  TEMP    WIND        PRES    WAVE   SWELL
                       AIR SEA DIR/SP/G            HT/PER HT/PER
                 (UTC) (F)     (DEG/KT/KT) (MB)    (FT/S) (FT/S)
CHESAPEAKE LIGHT 2300   42     340/  7/  7 1019.3
64 E VA BEACH    0000   44 55  320/ 14/ 17 1018.4    4/ 6   2/ 6
DUCK             0000   43 48   50/  1/  2 1018.4
2 E DUCK         0000      48                N/A     3/ 6
10 NE DUCK       0000      51                N/A     4/ 6
OREGON INLET     0000   44 51  290/  1/  2 1019.4
13E OREGON INLT  0000      53                N/A     4/ 6
HATTERAS CG      0000   44 54   70/  3/  3 1019.4
DIAMOND BUOY     0000   47                 1019.7    3/ 7
17 S OCRACOKE    NOT AVBL
CAPE LOOKOUT     2300   48      30/  4/  5 1019.2
BEAUFORT LAB     0000   46 53   20/  2/  3 1018.8
30 SE NEW RIVER  0000   52 60   40/  4/  4 1019.7    2/10   2/10
5 SE WRIGHTSVLE  2300   49 55  130/  6/  8 1018.9
225 S CAPE HAT   NOT AVBL
41 SE CHARLESTON 0000   60 72  330/  4/  8 1018.3    2/10   2/10

$$


USA.gov is the U.S. government's official web portal to all federal, state and local government web resources and services.